Location: Unspecified
(47.1121°N, 116.3927°W)
Time: 11:34:35
(UTC-07:00)

ISS - Pass Details

Date: 26 May 2019
Orbit: 408 x 418 km, 51.6° (Epoch: 18 June)

Event Time Altitude Azimuth Distance (km) Brightness Sun altitude
Rises 21:14:43 0° 280° (W) 2,351 1.1 -7.2°
Reaches altitude 10° 21:16:55 10° 289° (WNW) 1,491 0.3 -7.5°
Maximum altitude 21:20:02 36° 358° (N) 681 -2.2 -7.9°
Drops below altitude 10° 21:23:11 10° 67° (ENE) 1,498 -1.2 -8.2°
Sets 21:25:24 0° 76° (ENE) 2,364 -0.3 -8.5°
